Hourly Data Report for October 03, 2016

All times are specified in Local Standard Time (LST). Add 1 hour to adjust for Daylight Saving Time where and when it is observed.

SAINT JOHN A
NEW BRUNSWICK

45°18'58.000" N
65°53'24.000" W
108.80 m
8104901
71609
YSJ

Download Data

Hourly Data (October 2016)
Hourly Data Report for October 3, 2016
Temp Definition
°C
Dew Point Temp Definition
°C
Rel Hum Definition
%
Wind Dir Definition
10's deg

Wind Spd Definition
km/h
Visibility Definition
km
Stn Press Definition
kPa
Hmdx Definition


Wind Chill Definition


Weather Definition


TIME
00:00 Legend Double Dagger 11.6 11.5 99 23 4 16.1 100.06     LegendNANA
01:00 Legend Double Dagger 11.8 11.8 100 27 7 3.2 100.00     Fog
02:00 Legend Double Dagger 11.6 11.6 100 28 9 6.4 99.96     Fog
03:00 Legend Double Dagger 11.6 11.6 100 26 10 6.4 99.90     Fog
04:00 Legend Double Dagger 11.5 11.5 100 30 7 8.1 99.87     Fog
05:00 Legend Double Dagger 11.6 11.6 100 26 7 24.1 99.89     Cloudy
06:00 Legend Double Dagger 11.6 11.6 100 30 7 24.1 99.89     LegendNANA
07:00 Legend Double Dagger 11.8 11.8 100 28 7 24.1 99.92     LegendNANA
08:00 Legend Double Dagger 13.3 12.0 92 36 14 24.1 99.97     Mostly Cloudy
09:00 Legend Double Dagger 13.8 11.0 83 3 9 24.1 100.05     LegendNANA
10:00 Legend Double Dagger 13.4 9.9 79 4 31 24.1 100.14     LegendNANA
11:00 Legend Double Dagger 14.3 9.2 71 4 26 24.1 100.26     Mostly Cloudy
12:00 Legend Double Dagger 12.5 6.8 68 3 27 24.1 100.40     LegendNANA
13:00 Legend Double Dagger 13.9 6.3 60 2 26 24.1 100.45     LegendNANA
14:00 Legend Double Dagger 14.4 5.6 55 1 20 24.1 100.51     Mostly Cloudy
15:00 Legend Double Dagger 14.0 5.2 55 2 21 24.1 100.58     LegendNANA
16:00 Legend Double Dagger 13.4 4.6 55 4 13 24.1 100.63     LegendNANA
17:00 Legend Double Dagger 11.7 3.3 56 3 16 24.1 100.71     Clear
18:00 Legend Double Dagger 7.9 3.2 72 5 13 24.1 100.79     LegendNANA
19:00 Legend Double Dagger 6.8 3.1 77 12 7 24.1 100.90     LegendNANA
20:00 Legend Double Dagger 5.4 2.4 81 36 2 24.1 101.00     Clear
21:00 Legend Double Dagger 2.8 1.5 91 7 8 24.1 101.08     LegendNANA
22:00 Legend Double Dagger 2.9 1.0 87 8 10 24.1 101.14     LegendNANA
23:00 Legend Double Dagger 1.4 0.5 94 36 1 24.1 101.20     Clear

Notes on Data Quality.

Legend

  • E = Estimated
  • M = Missing
  • NA = Not Available
  • ‡ = Partner data that is not subject to review by the National Climate Archives
Date modified: